Погода в Даппах

Россия / Хабаровский край     50°11′19″N   137°23′16″E
темп.,
°C
ветер,
м/с
пор.,
м/с
влажн.,
%
обл.,
%
осадки,
мм/ч
давл.,
гПа
погр.,
м
25 января, пн
пн2501:00−24ссв23965 0.0 103125
04:00−25св23956 0.0 103320
07:00−26св22910 0.0 103520
10:00−24ссв12880 0.0 103638
13:00−18с22760 0.0 1035253
16:00−18с12829 0.0 1035107
19:00−22всв227881 0.0 103720
22:00−24св226942 0.0 103620
26 января, вт
вт2601:00−24св236827 0.0 103422
04:00−25св237559 0.0 103227
07:00−24ссв348198 0.0 102987
10:00−21ссв358299 0.0 1027184
13:00−18ссв4684100 0.0 1023264
16:00−17ссв5696100 0.2 1020246
19:00−19ссв4698100 0.6 1020214
22:00−20ссв4698100 1.1 1018208
27 января, ср
ср2701:00−21ссв4798100 0.3 1017221
04:00−22ссв4897100 0.5 1016249
07:00−22с4896100 0.2 1016310
10:00−22с5896100 0.5 1016357
13:00−21ссз4793100 0.1 1015442
16:00−21ссз4792100 0.2 1015492
19:00−23с3894100 0.1 1016426
22:00−24с2793100 0.1 1017221
28 января, чт
чт2801:00−24ссз1295100 0.0 101744
04:00−25зюз1198100 0.1 101842
07:00−26ю2297100 0.1 101922
10:00−24ю259798 0.1 1021185
13:00−22ююз3592100 0.1 1020499
16:00−22ююз3591100 0.1 1020526
19:00−26ююв229663 0.0 102119
22:00−27юв229848 0.0 102119
29 января, пт
пт2901:00−28вюв22950 0.0 102219
04:00−29в11940 0.0 102119
07:00−29св229020 0.0 102019
10:00−27ссв238953 0.0 1018111
13:00−22ссв578791 0.0 1016310
16:00−21ссв698696 0.0 1015446
19:00−21с61190100 0.0 1016436
22:00−22с61189100 0.0 1016463